| time (UTC) | temp C | wind direction | speed KPH | gust KPH | rain 1hr cm | rain 24hr cm | rain mn cm | humidity % | barometer mb |
| 20260906173507 | 25 | 175 | 4.8 | 16.1 | 0.00 | 0.00 | 0.00 | 56 | 1019.0 |
| 20260906173005 | 25 | 171 | 4.8 | 16.1 | 0.00 | 0.00 | 0.00 | 56 | 1018.9 |
| 20260906172506 | 25 | 182 | 4.8 | 14.5 | 0.00 | 0.00 | 0.00 | 57 | 1018.9 |
| 20260906172003 | 25 | 209 | 6.4 | 17.7 | 0.00 | 0.00 | 0.00 | 57 | 1019.1 |
| 20260906171501 | 25 | 170 | 8.0 | 17.7 | 0.00 | 0.00 | 0.00 | 56 | 1019.1 |
| 20260906171059 | 25 | 136 | 6.4 | 17.7 | 0.00 | 0.00 | 0.00 | 56 | 1019.1 |
| 20260906170559 | 24 | 194 | 4.8 | 17.7 | 0.00 | 0.00 | 0.00 | 57 | 1019.2 |
| 20260906170058 | 24 | 163 | 8.0 | 17.7 | 0.00 | 0.00 | 0.00 | 56 | 1019.3 |
| 20260906165557 | 24 | 184 | 4.8 | 16.1 | 0.00 | 0.00 | 0.00 | 57 | 1019.3 |
| 20260906165056 | 24 | 188 | 6.4 | 19.3 | 0.00 | 0.00 | 0.00 | 57 | 1019.5 |
| 20260906164557 | 24 | 190 | 8.0 | 19.3 | 0.00 | 0.00 | 0.00 | 57 | 1019.5 |
| 20260906164056 | 23 | 159 | 4.8 | 12.9 | 0.00 | 0.00 | 0.00 | 58 | 1019.4 |
| 20260906163553 | 23 | 154 | 6.4 | 16.1 | 0.00 | 0.00 | 0.00 | 58 | 1019.6 |
| 20260906163101 | 23 | 172 | 4.8 | 17.7 | 0.00 | 0.00 | 0.00 | 58 | 1019.5 |
| 20260906162552 | 23 | 187 | 6.4 | 17.7 | 0.00 | 0.00 | 0.00 | 58 | 1019.5 |
| 20260906162058 | 23 | 186 | 4.8 | 14.5 | 0.00 | 0.00 | 0.00 | 58 | 1019.4 |
| 20260906161551 | 23 | 228 | 6.4 | 14.5 | 0.00 | 0.00 | 0.00 | 58 | 1019.6 |
| 20260906161049 | 23 | 219 | 3.2 | 14.5 | 0.00 | 0.00 | 0.00 | 59 | 1019.5 |
| 20260906160547 | 23 | 225 | 8.0 | 14.5 | 0.00 | 0.00 | 0.00 | 58 | 1019.6 |
| 20260906160045 | 23 | 215 | 4.8 | 12.9 | 0.00 | 0.00 | 0.00 | 59 | 1019.6 |
| 20260906155546 | 23 | 180 | 3.2 | 14.5 | 0.00 | 0.00 | 0.00 | 59 | 1019.5 |
| 20260906155044 | 23 | 227 | 9.7 | 14.5 | 0.00 | 0.00 | 0.00 | 58 | 1019.5 |
| 20260906154543 | 22 | 228 | 3.2 | 14.5 | 0.00 | 0.00 | 0.00 | 60 | 1019.5 |
| 20260906154042 | 22 | 167 | 4.8 | 14.5 | 0.00 | 0.00 | 0.00 | 61 | 1019.6 |
| 20260906153541 | 22 | 219 | 3.2 | 12.9 | 0.00 | 0.00 | 0.00 | 62 | 1019.6 |
| 20260906153041 | 22 | 234 | 6.4 | 14.5 | 0.00 | 0.00 | 0.00 | 62 | 1019.6 |
| 20260906152540 | 21 | 126 | 4.8 | 14.5 | 0.00 | 0.00 | 0.00 | 63 | 1019.8 |
| 20260906152044 | 21 | 179 | 6.4 | 14.5 | 0.00 | 0.00 | 0.00 | 63 | 1019.8 |
| 20260906151540 | 21 | 165 | 6.4 | 14.5 | 0.00 | 0.00 | 0.00 | 63 | 1020.0 |
| 20260906151031 | 21 | 183 | 8.0 | 14.5 | 0.00 | 0.00 | 0.00 | 63 | 1020.0 |
| 20260906150531 | 21 | 198 | 6.4 | 14.5 | 0.00 | 0.00 | 0.00 | 62 | 1019.9 |
| 20260906150032 | 21 | 206 | 4.8 | 12.9 | 0.00 | 0.00 | 0.00 | 63 | 1019.9 |
| 20260906145527 | 21 | 188 | 3.2 | 11.3 | 0.00 | 0.00 | 0.00 | 63 | 1019.8 |
| 20260906145027 | 21 | 180 | 3.2 | 12.9 | 0.00 | 0.00 | 0.00 | 63 | 1019.8 |
| 20260906144527 | 21 | 189 | 4.8 | 17.7 | 0.00 | 0.00 | 0.00 | 63 | 1019.7 |
| 20260906144030 | 21 | 179 | 4.8 | 17.7 | 0.00 | 0.00 | 0.00 | 63 | 1019.6 |
| 20260906143528 | 21 | 207 | 6.4 | 14.5 | 0.00 | 0.00 | 0.00 | 63 | 1019.7 |
| 20260906143026 | 21 | 206 | 4.8 | 14.5 | 0.00 | 0.00 | 0.00 | 64 | 1019.6 |
| 20260906142526 | 21 | 213 | 6.4 | 16.1 | 0.00 | 0.00 | 0.00 | 64 | 1019.6 |
| 20260906142029 | 21 | 244 | 4.8 | 17.7 | 0.00 | 0.00 | 0.00 | 64 | 1019.6 |
| 20260906141029 | 21 | 195 | 4.8 | 11.3 | 0.00 | 0.00 | 0.00 | 64 | 1019.7 |
| 20260906140527 | 21 | 247 | 1.6 | 17.7 | 0.00 | 0.00 | 0.00 | 65 | 1019.7 |
| 20260906140024 | 21 | 232 | 6.4 | 17.7 | 0.00 | 0.00 | 0.00 | 64 | 1019.6 |
| 20260906135524 | 21 | 163 | 6.4 | 17.7 | 0.00 | 0.00 | 0.00 | 64 | 1019.6 |
| 20260906135024 | 21 | 217 | 8.0 | 14.5 | 0.00 | 0.00 | 0.00 | 64 | 1019.6 |
| 20260906134522 | 21 | 202 | 6.4 | 17.7 | 0.00 | 0.00 | 0.00 | 64 | 1019.5 |
| 20260906134022 | 21 | 185 | 9.7 | 17.7 | 0.00 | 0.00 | 0.00 | 64 | 1019.5 |
| 20260906133523 | 21 | 198 | 4.8 | 14.5 | 0.00 | 0.00 | 0.00 | 65 | 1019.4 |
| 20260906133024 | 21 | 178 | 3.2 | 14.5 | 0.00 | 0.00 | 0.00 | 65 | 1019.3 |
| 20260906132522 | 21 | 129 | 4.8 | 14.5 | 0.00 | 0.00 | 0.00 | 65 | 1019.2 |
| 20260906132019 | 21 | 191 | 6.4 | 14.5 | 0.00 | 0.00 | 0.00 | 65 | 1019.2 |
| 20260906131025 | 21 | 193 | 3.2 | 14.5 | 0.00 | 0.00 | 0.00 | 65 | 1019.1 |
| 20260906130524 | 21 | 144 | 6.4 | 14.5 | 0.00 | 0.00 | 0.00 | 65 | 1019.1 |
| 20260906130026 | 21 | 205 | 3.2 | 11.3 | 0.00 | 0.00 | 0.00 | 65 | 1019.1 |
| 20260906125524 | 21 | 165 | 3.2 | 11.3 | 0.00 | 0.00 | 0.00 | 65 | 1019.1 |
| 20260906125023 | 21 | 180 | 1.6 | 8.0 | 0.00 | 0.00 | 0.00 | 65 | 1019.0 |
| 20260906124522 | 21 | 175 | 1.6 | 8.0 | 0.00 | 0.00 | 0.00 | 66 | 1019.0 |
| 20260906124022 | 21 | 158 | 1.6 | 6.4 | 0.00 | 0.00 | 0.00 | 66 | 1019.1 |
| 20260906123521 | 21 | 180 | 1.6 | 8.0 | 0.00 | 0.00 | 0.00 | 66 | 1019.1 |
| 20260906123027 | 20 | 185 | 1.6 | 6.4 | 0.00 | 0.00 | 0.00 | 66 | 1019.2 |
| 20260906122521 | 20 | 180 | 0.0 | 6.4 | 0.00 | 0.00 | 0.00 | 66 | 1019.1 |
| 20260906122023 | 20 | 180 | 0.0 | 6.4 | 0.00 | 0.00 | 0.00 | 66 | 1019.1 |
| 20260906121020 | 20 | 177 | 1.6 | 8.0 | 0.00 | 0.00 | 0.00 | 66 | 1019.0 |
| 20260906120523 | 20 | 181 | 1.6 | 8.0 | 0.00 | 0.00 | 0.00 | 66 | 1018.9 |
| 20260906120018 | 20 | 190 | 0.0 | 6.4 | 0.00 | 0.00 | 0.00 | 66 | 1018.9 |
| 20260906115517 | 20 | 190 | 1.6 | 8.0 | 0.00 | 0.00 | 0.00 | 66 | 1018.8 |
| 20260906115016 | 20 | 198 | 0.0 | 9.7 | 0.00 | 0.00 | 0.00 | 66 | 1018.8 |
| 20260906114533 | 20 | 186 | 3.2 | 9.7 | 0.00 | 0.00 | 0.00 | 66 | 1018.9 |
| 20260906114014 | 20 | 185 | 0.0 | 6.4 | 0.00 | 0.00 | 0.00 | 66 | 1018.8 |
| 20260906113515 | 20 | 195 | 0.0 | 9.7 | 0.00 | 0.00 | 0.00 | 66 | 1018.7 |
| 20260906113013 | 21 | 223 | 3.2 | 11.3 | 0.00 | 0.00 | 0.00 | 66 | 1018.6 |
| 20260906112512 | 20 | 190 | 0.0 | 4.8 | 0.00 | 0.00 | 0.00 | 66 | 1018.6 |
| 20260906112015 | 21 | 187 | 0.0 | 12.9 | 0.00 | 0.00 | 0.00 | 66 | 1018.5 |
| 20260906111521 | 21 | 207 | 0.0 | 6.4 | 0.00 | 0.00 | 0.00 | 66 | 1018.6 |
| 20260906111009 | 21 | 191 | 0.0 | 6.4 | 0.00 | 0.00 | 0.00 | 67 | 1018.5 |
| 20260906110510 | 21 | 159 | 0.0 | 6.4 | 0.00 | 0.00 | 0.00 | 67 | 1018.5 |
| 20260906110009 | 21 | 170 | 0.0 | 6.4 | 0.00 | 0.00 | 0.00 | 67 | 1018.4 |
| 20260906105510 | 21 | 170 | 1.6 | 6.4 | 0.00 | 0.00 | 0.00 | 67 | 1018.4 |
| 20260906105008 | 21 | 167 | 0.0 | 3.2 | 0.00 | 0.00 | 0.00 | 67 | 1018.6 |
| 20260906104511 | 21 | 167 | 0.0 | 3.2 | 0.00 | 0.00 | 0.00 | 66 | 1018.5 |
| 20260906104007 | 21 | 167 | 0.0 | 6.4 | 0.00 | 0.00 | 0.00 | 66 | 1018.5 |
| 20260906103506 | 21 | 192 | 0.0 | 6.4 | 0.00 | 0.00 | 0.00 | 66 | 1018.5 |
| 20260906103007 | 21 | 192 | 0.0 | 1.6 | 0.00 | 0.00 | 0.00 | 66 | 1018.3 |
| 20260906102505 | 21 | 192 | 0.0 | 3.2 | 0.00 | 0.00 | 0.00 | 66 | 1018.4 |
| 20260906102006 | 21 | 206 | 0.0 | 3.2 | 0.00 | 0.00 | 0.00 | 66 | 1018.4 |
| 20260906101506 | 21 | 207 | 0.0 | 6.4 | 0.00 | 0.00 | 0.00 | 66 | 1018.4 |
| 20260906101038 | 21 | 207 | 0.0 | 6.4 | 0.00 | 0.00 | 0.00 | 66 | 1018.4 |
| 20260906100537 | 21 | 200 | 0.0 | 0.0 | 0.00 | 0.00 | 0.00 | 66 | 1018.3 |
| 20260906100035 | 21 | 200 | 0.0 | 3.2 | 0.00 | 0.00 | 0.00 | 66 | 1018.3 |
| 20260906095534 | 21 | 200 | 0.0 | 3.2 | 0.00 | 0.00 | 0.00 | 66 | 1018.1 |
| 20260906095034 | 21 | 184 | 0.0 | 8.0 | 0.00 | 0.00 | 0.00 | 66 | 1018.0 |
| 20260906094541 | 21 | 184 | 1.6 | 11.3 | 0.00 | 0.00 | 0.00 | 66 | 1017.7 |
| 20260906094032 | 21 | 196 | 3.2 | 11.3 | 0.00 | 0.00 | 0.00 | 66 | 1017.6 |
| 20260906093532 | 21 | 187 | 3.2 | 12.9 | 0.00 | 0.00 | 0.00 | 66 | 1017.6 |
| 20260906093032 | 21 | 186 | 3.2 | 12.9 | 0.00 | 0.00 | 0.00 | 66 | 1017.6 |
| 20260906092530 | 21 | 207 | 3.2 | 12.9 | 0.00 | 0.00 | 0.00 | 66 | 1017.5 |
| 20260906092031 | 21 | 163 | 1.6 | 9.7 | 0.00 | 0.00 | 0.00 | 66 | 1017.6 |
| 20260906091535 | 21 | 158 | 0.0 | 3.2 | 0.00 | 0.00 | 0.00 | 66 | 1017.6 |
| 20260906091031 | 21 | 158 | 0.0 | 9.7 | 0.00 | 0.00 | 0.00 | 66 | 1017.6 |
| 20260906090529 | 21 | 161 | 0.0 | 9.7 | 0.00 | 0.00 | 0.00 | 66 | 1017.7 |
| 20260906090029 | 21 | 173 | 0.0 | 8.0 | 0.00 | 0.00 | 0.00 | 66 | 1017.7 |
| 20260906085528 | 21 | 178 | 1.6 | 9.7 | 0.00 | 0.00 | 0.00 | 65 | 1017.7 |
| 20260906085028 | 21 | 117 | 0.0 | 8.0 | 0.00 | 0.00 | 0.00 | 65 | 1017.7 |
| 20260906084533 | 21 | 190 | 1.6 | 8.0 | 0.00 | 0.00 | 0.00 | 65 | 1017.6 |
| 20260906084025 | 21 | 163 | 1.6 | 11.3 | 0.00 | 0.00 | 0.00 | 65 | 1017.6 |
| 20260906083526 | 21 | 193 | 1.6 | 16.1 | 0.00 | 0.00 | 0.00 | 65 | 1017.5 |
| 20260906083025 | 21 | 140 | 6.4 | 16.1 | 0.00 | 0.00 | 0.00 | 65 | 1017.4 |
| 20260906082523 | 21 | 162 | 3.2 | 11.3 | 0.00 | 0.00 | 0.00 | 65 | 1017.4 |
| 20260906082023 | 21 | 175 | 1.6 | 9.7 | 0.00 | 0.00 | 0.00 | 65 | 1017.5 |
| 20260906081529 | 21 | 142 | 1.6 | 9.7 | 0.00 | 0.00 | 0.00 | 65 | 1017.6 |
| 20260906081022 | 21 | 143 | 1.6 | 11.3 | 0.00 | 0.00 | 0.00 | 65 | 1017.5 |
| 20260906080521 | 22 | 169 | 3.2 | 17.7 | 0.00 | 0.00 | 0.00 | 65 | 1017.4 |
| 20260906080021 | 22 | 182 | 4.8 | 17.7 | 0.00 | 0.00 | 0.00 | 65 | 1017.3 |
| 20260906075520 | 22 | 202 | 4.8 | 11.3 | 0.00 | 0.00 | 0.00 | 64 | 1017.3 |
| 20260906075023 | 22 | 167 | 1.6 | 12.9 | 0.00 | 0.00 | 0.00 | 64 | 1017.4 |
| 20260906074519 | 22 | 192 | 3.2 | 11.3 | 0.00 | 0.00 | 0.00 | 64 | 1017.5 |
| 20260906074019 | 22 | 195 | 4.8 | 11.3 | 0.00 | 0.00 | 0.00 | 64 | 1017.6 |
| 20260906073551 | 22 | 173 | 3.2 | 8.0 | 0.00 | 0.00 | 0.00 | 64 | 1017.6 |
| 20260906073048 | 22 | 172 | 0.0 | 6.4 | 0.00 | 0.00 | 0.00 | 64 | 1017.7 |
| 20260906072549 | 22 | 175 | 0.0 | 6.4 | 0.00 | 0.00 | 0.00 | 64 | 1017.7 |
| 20260906072047 | 22 | 173 | 0.0 | 9.7 | 0.00 | 0.00 | 0.00 | 64 | 1017.8 |
| 20260906071547 | 22 | 175 | 1.6 | 9.7 | 0.00 | 0.00 | 0.00 | 64 | 1017.7 |
| 20260906071047 | 22 | 174 | 0.0 | 3.2 | 0.00 | 0.00 | 0.00 | 64 | 1017.8 |
| 20260906070545 | 22 | 175 | 0.0 | 3.2 | 0.00 | 0.00 | 0.00 | 64 | 1017.9 |
| 20260906070042 | 22 | 175 | 0.0 | 3.2 | 0.00 | 0.00 | 0.00 | 64 | 1018.0 |
| 20260906065545 | 22 | 175 | 0.0 | 6.4 | 0.00 | 0.00 | 0.00 | 64 | 1018.1 |
| 20260906065042 | 22 | 182 | 0.0 | 6.4 | 0.00 | 0.00 | 0.00 | 64 | 1018.0 |
| 20260906064541 | 22 | 187 | 0.0 | 6.4 | 0.00 | 0.00 | 0.00 | 64 | 1017.9 |
| 20260906064041 | 22 | 236 | 0.0 | 8.0 | 0.00 | 0.00 | 0.00 | 64 | 1017.9 |
| 20260906063542 | 22 | 115 | 3.2 | 8.0 | 0.00 | 0.00 | 0.00 | 64 | 1017.9 |
| 20260906063040 | 22 | 152 | 1.6 | 4.8 | 0.00 | 0.00 | 0.00 | 64 | 1017.9 |
| 20260906062539 | 22 | 130 | 1.6 | 6.4 | 0.00 | 0.00 | 0.00 | 64 | 1018.1 |
| 20260906062041 | 22 | 128 | 0.0 | 3.2 | 0.00 | 0.00 | 0.00 | 64 | 1018.1 |
| 20260906061540 | 22 | 128 | 0.0 | 8.0 | 0.00 | 0.00 | 0.00 | 64 | 1018.0 |
| 20260906061039 | 23 | 128 | 1.6 | 8.0 | 0.00 | 0.00 | 0.00 | 64 | 1017.9 |
| 20260906060509 | 23 | 155 | 1.6 | 6.4 | 0.00 | 0.00 | 0.00 | 64 | 1018.1 |
| 20260906060011 | 23 | 185 | 0.0 | 6.4 | 0.00 | 0.00 | 0.00 | 64 | 1018.0 |
| 20260906055508 | 23 | 185 | 0.0 | 6.4 | 0.00 | 0.00 | 0.00 | 63 | 1018.0 |
| 20260906055011 | 23 | 157 | 0.0 | 6.4 | 0.00 | 0.00 | 0.00 | 63 | 1017.8 |
| 20260906054509 | 23 | 171 | 0.0 | 3.2 | 0.00 | 0.00 | 0.00 | 63 | 1017.9 |
| 20260906054008 | 23 | 173 | 0.0 | 8.0 | 0.00 | 0.00 | 0.00 | 63 | 1017.8 |
| 20260906053508 | 23 | 173 | 0.0 | 8.0 | 0.00 | 0.00 | 0.00 | 63 | 1017.8 |
| 20260906053006 | 23 | 175 | 1.6 | 8.0 | 0.00 | 0.00 | 0.00 | 64 | 1017.8 |
| 20260906052505 | 22 | 172 | 0.0 | 4.8 | 0.00 | 0.00 | 0.00 | 63 | 1018.0 |
| 20260906052005 | 22 | 144 | 0.0 | 6.4 | 0.00 | 0.00 | 0.00 | 63 | 1017.9 |
| 20260906051505 | 22 | 170 | 0.0 | 6.4 | 0.00 | 0.00 | 0.00 | 64 | 1018.1 |
| 20260906051005 | 22 | 196 | 0.0 | 4.8 | 0.00 | 0.00 | 0.00 | 64 | 1018.1 |
| 20260906050506 | 22 | 198 | 0.0 | 3.2 | 0.00 | 0.00 | 0.00 | 64 | 1018.1 |
| 20260906050011 | 22 | 208 | 0.0 | 3.2 | 0.00 | 0.00 | 0.00 | 64 | 1018.1 |
| 20260906045507 | 22 | 213 | 0.0 | 3.2 | 0.00 | 0.00 | 0.00 | 64 | 1018.1 |
| 20260906045008 | 22 | 215 | 0.0 | 3.2 | 0.00 | 0.00 | 0.00 | 64 | 1018.2 |
| 20260906044504 | 22 | 218 | 0.0 | 3.2 | 0.00 | 0.00 | 0.00 | 64 | 1018.1 |
| 20260906044006 | 22 | 227 | 0.0 | 1.6 | 0.00 | 0.00 | 0.00 | 64 | 1018.3 |
| 20260906043559 | 22 | 227 | 0.0 | 1.6 | 0.00 | 0.00 | 0.00 | 64 | 1018.3 |
| 20260906043105 | 22 | 227 | 0.0 | 0.0 | 0.00 | 0.00 | 0.00 | 64 | 1018.4 |
| 20260906042558 | 22 | 227 | 0.0 | 0.0 | 0.00 | 0.00 | 0.00 | 64 | 1018.4 |
| 20260906042058 | 22 | 227 | 0.0 | 1.6 | 0.00 | 0.00 | 0.00 | 64 | 1018.4 |
| 20260906041558 | 23 | 227 | 0.0 | 1.6 | 0.00 | 0.00 | 0.00 | 64 | 1018.3 |
| 20260906041058 | 23 | 227 | 0.0 | 3.2 | 0.00 | 0.00 | 0.00 | 64 | 1018.3 |
| 20260906040556 | 23 | 227 | 0.0 | 3.2 | 0.00 | 0.00 | 0.00 | 64 | 1018.4 |
| 20260906040055 | 23 | 227 | 0.0 | 1.6 | 0.00 | 0.00 | 0.00 | 63 | 1018.4 |
| 20260906035554 | 23 | 227 | 0.0 | 1.6 | 0.00 | 0.00 | 0.00 | 63 | 1018.5 |
| 20260906035053 | 23 | 227 | 0.0 | 1.6 | 0.00 | 0.00 | 0.00 | 63 | 1018.4 |
| 20260906034558 | 23 | 227 | 0.0 | 0.0 | 0.00 | 0.00 | 0.00 | 63 | 1018.5 |
| 20260906034051 | 23 | 227 | 0.0 | 0.0 | 0.00 | 0.00 | 0.00 | 63 | 1018.5 |
| 20260906033551 | 23 | 227 | 0.0 | 1.6 | 0.00 | 0.00 | 0.00 | 63 | 1018.4 |
| 20260906033049 | 23 | 227 | 0.0 | 1.6 | 0.00 | 0.00 | 0.00 | 63 | 1018.3 |
| 20260906032551 | 23 | 227 | 0.0 | 1.6 | 0.00 | 0.00 | 0.00 | 62 | 1018.3 |
| 20260906032049 | 23 | 227 | 0.0 | 3.2 | 0.00 | 0.00 | 0.00 | 62 | 1018.3 |
| 20260906031609 | 23 | 227 | 0.0 | 3.2 | 0.00 | 0.00 | 0.00 | 62 | 1018.3 |
| 20260906031052 | 23 | 227 | 0.0 | 3.2 | 0.00 | 0.00 | 0.00 | 62 | 1018.3 |
| 20260906030549 | 23 | 227 | 0.0 | 3.2 | 0.00 | 0.00 | 0.00 | 62 | 1018.4 |
| 20260906030050 | 24 | 227 | 0.0 | 1.6 | 0.00 | 0.00 | 0.00 | 62 | 1018.4 |
| 20260906025548 | 24 | 227 | 0.0 | 1.6 | 0.00 | 0.00 | 0.00 | 62 | 1018.3 |
| 20260906025047 | 24 | 227 | 0.0 | 1.6 | 0.00 | 0.00 | 0.00 | 61 | 1018.4 |
| 20260906024555 | 24 | 227 | 0.0 | 1.6 | 0.00 | 0.00 | 0.00 | 61 | 1018.6 |
| 20260906024047 | 24 | 227 | 0.0 | 1.6 | 0.00 | 0.00 | 0.00 | 61 | 1018.5 |
| 20260906023546 | 24 | 227 | 0.0 | 1.6 | 0.00 | 0.00 | 0.00 | 61 | 1018.3 |
| 20260906023104 | 24 | 227 | 0.0 | 3.2 | 0.00 | 0.00 | 0.00 | 60 | 1018.1 |
| 20260906022545 | 24 | 227 | 0.0 | 6.4 | 0.00 | 0.00 | 0.00 | 60 | 1017.9 |
| 20260906022045 | 24 | 227 | 0.0 | 8.0 | 0.00 | 0.00 | 0.00 | 60 | 1017.8 |
| 20260906021545 | 24 | 227 | 1.6 | 8.0 | 0.00 | 0.00 | 0.00 | 60 | 1017.9 |
| 20260906021044 | 24 | 209 | 1.6 | 8.0 | 0.00 | 0.00 | 0.00 | 60 | 1017.8 |
| 20260906020544 | 24 | 209 | 1.6 | 6.4 | 0.00 | 0.00 | 0.00 | 60 | 1017.8 |
| 20260906020050 | 24 | 178 | 0.0 | 6.4 | 0.00 | 0.00 | 0.00 | 59 | 1017.5 |
| 20260906015543 | 25 | 178 | 0.0 | 6.4 | 0.00 | 0.00 | 0.00 | 58 | 1017.3 |
| 20260906015044 | 25 | 188 | 0.0 | 6.4 | 0.00 | 0.00 | 0.00 | 58 | 1017.1 |
| 20260906014544 | 25 | 188 | 1.6 | 8.0 | 0.00 | 0.00 | 0.00 | 57 | 1017.1 |
| 20260906014044 | 25 | 188 | 3.2 | 8.0 | 0.00 | 0.00 | 0.00 | 57 | 1016.9 |
| 20260906013543 | 25 | 190 | 1.6 | 9.7 | 0.00 | 0.00 | 0.00 | 57 | 1016.8 |
| 20260906013041 | 25 | 184 | 3.2 | 11.3 | 0.00 | 0.00 | 0.00 | 57 | 1016.6 |
| 20260906012542 | 25 | 192 | 4.8 | 14.5 | 0.00 | 0.00 | 0.00 | 57 | 1016.6 |
| 20260906012041 | 25 | 186 | 1.6 | 14.5 | 0.00 | 0.00 | 0.00 | 57 | 1016.5 |
| 20260906011540 | 25 | 182 | 3.2 | 14.5 | 0.00 | 0.00 | 0.00 | 57 | 1016.4 |
| 20260906011041 | 25 | 140 | 3.2 | 19.3 | 0.00 | 0.00 | 0.00 | 57 | 1016.4 |
| 20260906010540 | 26 | 148 | 6.4 | 16.1 | 0.00 | 0.00 | 0.00 | 57 | 1016.4 |
| 20260906010040 | 26 | 217 | 6.4 | 14.5 | 0.00 | 0.00 | 0.00 | 57 | 1016.4 |
| 20260906005540 | 26 | 218 | 3.2 | 14.5 | 0.00 | 0.00 | 0.00 | 57 | 1016.2 |
| 20260906005040 | 26 | 180 | 3.2 | 20.9 | 0.00 | 0.00 | 0.00 | 56 | 1016.3 |
| 20260906004547 | 26 | 275 | 4.8 | 22.5 | 0.00 | 0.00 | 0.00 | 56 | 1016.1 |
| 20260906004039 | 26 | 224 | 6.4 | 20.9 | 0.00 | 0.00 | 0.00 | 55 | 1015.9 |
| 20260906003539 | 27 | 201 | 9.7 | 19.3 | 0.00 | 0.00 | 0.00 | 55 | 1015.8 |
| 20260906003042 | 27 | 205 | 8.0 | 19.3 | 0.00 | 0.00 | 0.00 | 54 | 1015.7 |
| 20260906002536 | 27 | 123 | 4.8 | 12.9 | 0.00 | 0.00 | 0.00 | 52 | 1015.6 |
| 20260906002037 | 27 | 202 | 3.2 | 9.7 | 0.00 | 0.00 | 0.00 | 50 | 1015.6 |
| 20260906001543 | 27 | 192 | 3.2 | 11.3 | 0.00 | 0.00 | 0.00 | 50 | 1015.7 |
| 20260906001036 | 28 | 137 | 1.6 | 12.9 | 0.00 | 0.00 | 0.00 | 49 | 1016.0 |
| 20260906000536 | 28 | 190 | 1.6 | 12.9 | 0.00 | 0.00 | 0.00 | 49 | 1015.9 |
| 20260906000035 | 28 | 189 | 3.2 | 11.3 | 0.00 | 0.00 | 0.00 | 49 | 1015.8 |
| 20260905235539 | 28 | 189 | 4.8 | 17.7 | 0.00 | 0.00 | 0.00 | 48 | 1015.7 |
| 20260905235036 | 28 | 46 | 4.8 | 17.7 | 0.00 | 0.00 | 0.00 | 48 | 1015.6 |
| 20260905234535 | 28 | 165 | 8.0 | 17.7 | 0.00 | 0.00 | 0.00 | 47 | 1015.5 |
| 20260905234035 | 28 | 167 | 6.4 | 17.7 | 0.00 | 0.00 | 0.00 | 48 | 1015.5 |
| 20260905233535 | 29 | 164 | 3.2 | 17.7 | 0.00 | 0.00 | 0.00 | 47 | 1015.5 |
| 20260905233038 | 29 | 192 | 4.8 | 17.7 | 0.00 | 0.00 | 0.00 | 47 | 1015.4 |
| 20260905232533 | 29 | 165 | 4.8 | 16.1 | 0.00 | 0.00 | 0.00 | 46 | 1015.3 |
| 20260905232034 | 29 | 215 | 6.4 | 16.1 | 0.00 | 0.00 | 0.00 | 46 | 1015.3 |
| 20260905231536 | 29 | 137 | 6.4 | 14.5 | 0.00 | 0.00 | 0.00 | 46 | 1015.4 |
| 20260905231032 | 29 | 134 | 8.0 | 19.3 | 0.00 | 0.00 | 0.00 | 45 | 1015.4 |
| 20260905230531 | 29 | 194 | 6.4 | 19.3 | 0.00 | 0.00 | 0.00 | 45 | 1015.1 |
| 20260905230031 | 29 | 135 | 4.8 | 19.3 | 0.00 | 0.00 | 0.00 | 45 | 1015.1 |
| 20260905225531 | 29 | 101 | 6.4 | 16.1 | 0.00 | 0.00 | 0.00 | 45 | 1015.0 |
| 20260905225031 | 30 | 140 | 8.0 | 19.3 | 0.00 | 0.00 | 0.00 | 45 | 1014.9 |
| 20260905224530 | 30 | 96 | 9.7 | 19.3 | 0.00 | 0.00 | 0.00 | 45 | 1014.8 |
| 20260905224037 | 30 | 114 | 6.4 | 16.1 | 0.00 | 0.00 | 0.00 | 45 | 1014.8 |
| 20260905223529 | 30 | 199 | 3.2 | 14.5 | 0.00 | 0.00 | 0.00 | 45 | 1014.9 |
| 20260905223028 | 30 | 178 | 4.8 | 14.5 | 0.00 | 0.00 | 0.00 | 46 | 1015.1 |
| 20260905222700 | 30 | 102 | 8.0 | 14.5 | 0.00 | 0.00 | 0.00 | 45 | 1015.2 |
| 20260905222100 | 30 | 115 | 4.8 | 14.5 | 0.00 | 0.00 | 0.00 | 45 | 1015.2 |
| 20260905221619 | 30 | 143 | 3.2 | 14.5 | 0.00 | 0.00 | 0.00 | 45 | 1015.2 |
| 20260905221058 | 30 | 186 | 6.4 | 14.5 | 0.00 | 0.00 | 0.00 | 44 | 1015.3 |
| 20260905220556 | 30 | 139 | 6.4 | 12.9 | 0.00 | 0.00 | 0.00 | 45 | 1015.2 |
| 20260905220055 | 30 | 120 | 4.8 | 12.9 | 0.00 | 0.00 | 0.00 | 45 | 1015.3 |
| 20260905215552 | 30 | 192 | 3.2 | 12.9 | 0.00 | 0.00 | 0.00 | 46 | 1015.3 |
| 20260905215055 | 29 | 114 | 4.8 | 22.5 | 0.00 | 0.00 | 0.00 | 46 | 1015.1 |
| 20260905214601 | 30 | 123 | 9.7 | 22.5 | 0.00 | 0.00 | 0.00 | 45 | 1015.1 |
| 20260905214052 | 30 | 157 | 8.0 | 19.3 | 0.00 | 0.00 | 0.00 | 46 | 1015.1 |
| 20260905213550 | 30 | 136 | 6.4 | 17.7 | 0.00 | 0.00 | 0.00 | 47 | 1015.3 |
| 20260905213052 | 29 | 181 | 8.0 | 17.7 | 0.00 | 0.00 | 0.00 | 47 | 1015.3 |
| 20260905212552 | 29 | 134 | 8.0 | 16.1 | 0.00 | 0.00 | 0.00 | 47 | 1015.3 |
| 20260905212049 | 29 | 115 | 6.4 | 17.7 | 0.00 | 0.00 | 0.00 | 47 | 1015.4 |
| 20260905211549 | 28 | 103 | 9.7 | 17.7 | 0.00 | 0.00 | 0.00 | 49 | 1015.3 |
| 20260905211046 | 28 | 119 | 9.7 | 20.9 | 0.00 | 0.00 | 0.00 | 50 | 1015.3 |
| 20260905210547 | 28 | 91 | 9.7 | 20.9 | 0.00 | 0.00 | 0.00 | 50 | 1015.3 |
| 20260905210055 | 28 | 217 | 9.7 | 19.3 | 0.00 | 0.00 | 0.00 | 50 | 1015.4 |
| 20260905205541 | 29 | 146 | 8.0 | 17.7 | 0.00 | 0.00 | 0.00 | 50 | 1015.5 |
| 20260905205041 | 29 | 168 | 6.4 | 12.9 | 0.00 | 0.00 | 0.00 | 50 | 1015.7 |
| 20260905204542 | 28 | 234 | 6.4 | 12.9 | 0.00 | 0.00 | 0.00 | 51 | 1016.1 |
| 20260905204040 | 28 | 130 | 6.4 | 12.9 | 0.00 | 0.00 | 0.00 | 51 | 1016.2 |
| 20260905203537 | 28 | 176 | 8.0 | 12.9 | 0.00 | 0.00 | 0.00 | 52 | 1016.2 |
| 20260905203038 | 28 | 227 | 3.2 | 12.9 | 0.00 | 0.00 | 0.00 | 52 | 1016.3 |
| 20260905202535 | 28 | 174 | 6.4 | 11.3 | 0.00 | 0.00 | 0.00 | 52 | 1016.3 |
| 20260905202036 | 28 | 98 | 3.2 | 11.3 | 0.00 | 0.00 | 0.00 | 54 | 1016.4 |
| 20260905201537 | 27 | 202 | 4.8 | 11.3 | 0.00 | 0.00 | 0.00 | 55 | 1016.5 |
| 20260905201035 | 27 | 123 | 6.4 | 12.9 | 0.00 | 0.00 | 0.00 | 55 | 1016.7 |
| 20260905200540 | 27 | 140 | 3.2 | 12.9 | 0.00 | 0.00 | 0.00 | 54 | 1016.7 |
| 20260905200038 | 27 | 123 | 8.0 | 12.9 | 0.00 | 0.00 | 0.00 | 54 | 1016.9 |
| 20260905195507 | 27 | 138 | 6.4 | 14.5 | 0.00 | 0.00 | 0.00 | 54 | 1017.0 |
| 20260905195005 | 28 | 96 | 4.8 | 12.9 | 0.00 | 0.00 | 0.00 | 53 | 1017.1 |
| 20260905194505 | 28 | 119 | 6.4 | 14.5 | 0.00 | 0.00 | 0.00 | 53 | 1017.3 |
| 20260905194005 | 28 | 123 | 0.0 | 8.0 | 0.00 | 0.00 | 0.00 | 52 | 1017.2 |
| 20260905193504 | 28 | 123 | 3.2 | 9.7 | 0.00 | 0.00 | 0.00 | 52 | 1017.3 |
| 20260905193003 | 28 | 224 | 3.2 | 9.7 | 0.00 | 0.00 | 0.00 | 53 | 1017.3 |
| 20260905192603 | 28 | 238 | 4.8 | 9.7 | 0.00 | 0.00 | 0.00 | 53 | 1017.4 |
| 20260905192058 | 28 | 171 | 1.6 | 11.3 | 0.00 | 0.00 | 0.00 | 54 | 1017.4 |
| 20260905191558 | 27 | 212 | 0.0 | 11.3 | 0.00 | 0.00 | 0.00 | 55 | 1017.4 |
| 20260905191100 | 27 | 112 | 3.2 | 14.5 | 0.00 | 0.00 | 0.00 | 55 | 1017.2 |
| 20260905190558 | 27 | 88 | 1.6 | 14.5 | 0.00 | 0.00 | 0.00 | 54 | 1017.3 |
| 20260905190100 | 27 | 128 | 6.4 | 11.3 | 0.00 | 0.00 | 0.00 | 55 | 1017.3 |
| 20260905185557 | 27 | 228 | 3.2 | 11.3 | 0.00 | 0.00 | 0.00 | 54 | 1017.4 |
| 20260905185059 | 27 | 182 | 1.6 | 9.7 | 0.00 | 0.00 | 0.00 | 55 | 1017.3 |
| 20260905184600 | 27 | 165 | 3.2 | 11.3 | 0.00 | 0.00 | 0.00 | 57 | 1017.4 |
| 20260905184059 | 27 | 115 | 1.6 | 12.9 | 0.00 | 0.00 | 0.00 | 57 | 1017.4 |
| 20260905183556 | 27 | 97 | 4.8 | 11.3 | 0.00 | 0.00 | 0.00 | 56 | 1017.3 |
| 20260905183056 | 27 | 66 | 1.6 | 9.7 | 0.00 | 0.00 | 0.00 | 55 | 1017.4 |
| 20260905182555 | 27 | 261 | 3.2 | 11.3 | 0.00 | 0.00 | 0.00 | 55 | 1017.5 |
| 20260905182054 | 27 | 211 | 3.2 | 11.3 | 0.00 | 0.00 | 0.00 | 55 | 1017.4 |
| 20260905181553 | 27 | 122 | 3.2 | 9.7 | 0.00 | 0.00 | 0.00 | 56 | 1017.5 |
| 20260905181053 | 27 | 221 | 1.6 | 8.0 | 0.00 | 0.00 | 0.00 | 58 | 1017.5 |
| 20260905180549 | 26 | 190 | 1.6 | 9.7 | 0.00 | 0.00 | 0.00 | 59 | 1017.5 |
| 20260905180109 | 26 | 139 | 3.2 | 9.7 | 0.00 | 0.00 | 0.00 | 59 | 1017.6 |
| 20260905175547 | 26 | 219 | 1.6 | 8.0 | 0.00 | 0.00 | 0.00 | 59 | 1017.7 |
| 20260905175050 | 26 | 194 | 1.6 | 12.9 | 0.00 | 0.00 | 0.00 | 59 | 1017.7 |
| 20260905174546 | 26 | 193 | 3.2 | 14.5 | 0.00 | 0.00 | 0.00 | 59 | 1017.8 |
| 20260905174046 | 26 | 9 | 0.0 | 9.7 | 0.00 | 0.00 | 0.00 | 60 | 1017.9 |